Regional Weather Roundup
Issued by NWS

Home | Current Version | Previous Version | Text Only | Print | Product List | Glossary On
Versions: 1 2 3 4 5 6 7 8 9 10 11 12 13 14 15 16 17 18 19 20 21 22 23 24 25 26 27 28 29 30 31 32 33 34 35 36 37 38 39 40 41 42 43 44 45 46 47 48 49 50
576
ASUS44 KFWD 221503
RWRTX
NORTH TEXAS HOURLY WEATHER ROUNDUP
NATIONAL WEATHER SERVICE FORT WORTH TX
900 AM CST THU FEB 22 2018

NOTE: "FAIR" INDICATES FEW OR NO CLOUDS BELOW 12,000 FEET WITH NO
SIGNIFICANT WEATHER AND/OR OBSTRUCTIONS TO VISIBILITY.

TXZ118-119-221600-
DALLAS/FORT WORTH METROPLEX

CITY           SKY/WX    TMP DP  RH WIND       PRES   REMARKS
DFW AIRPORT    TSTM      36  35  96 E17       30.22F VSB 1/2 WCI  26
DALLAS LOVE    TSTM      36  33  89 NE10G17   30.26F FOG     WCI  28
FTW MEACHAM    RAIN      34  33  96 VRB3      30.29R FOG
DAL-EXECUTIVE  TSTM      35  35 100 VRB5      30.26F FOG     WCI  31
FTW-ALLIANCE   TSTM      33  33 100 VRB3      30.28R FOG
FTW-NAS-JRB    LGT RAIN  34  31  88 SE5       30.32R WCI  30
FTW-SPINKS     TSTM      34  32  93 NW6       30.30R WCI  29
ARLINGTON      TSTM      34  34 100 CALM      30.29R FOG
GRAND PRAIRIE  LGT RAIN  36  36 100 SW5       30.31R WCI  32
ADDISON        RAIN      36  34  93 CALM      30.31R
MESQUITE       TSTM      36  36 100 NE9       30.25F WCI  29
LANCASTER      TSTM      35  34  97 NW13      30.31R WCI  26
$$

TXZ091>094-102>105-117-120-121-131>134-221600-
NORTH CENTRAL TEXAS

CITY           SKY/WX    TMP DP  RH WIND       PRES   REMARKS
SHRMAN/DENISON NOT AVBL
GAINESVILLE    FOG       32  31  97 CALM      30.32R VSB 3/4
BOWIE          FOG       30  30  99 CALM      30.26R VSB 1
BRIDGEPORT     CLOUDY    31  31 100 CALM      30.29R FOG
DECATUR        CLOUDY    31  31  98 CALM      30.25R FOG
DENTON         RAIN      32  32 100 N14       30.23F FOG     WCI  22
MCKINNEY       HVY RAIN  34  34 100 VRB7      30.29S VSB 1   WCI  28
BONHAM         FOG       33  33  99 N5        30.31S VSB 3/4 WCI  29
ROCKWALL         N/A     35  35 100 N10       30.27R THUNDER WCI  27
TERRELL        TSTM      37  36  96 N5        30.29R FOG     WCI  33
WAXAHACHIE     LGT RAIN  34  34 100 NE8       30.26R WCI  27
CLEBURNE       TSTM      32  32 100 MISG      30.30R
GRANBURY       MIX PCPN  33  32  96 NW3       30.30R
$$

TXZ083>090-098>101-113>116-127>130-139>142-154-155-221600-
WESTERN NORTH TEXAS

CITY           SKY/WX    TMP DP  RH WIND       PRES   REMARKS
WICHITA FALLS  TSTM      30  28  92 N10       30.26R WCI  21
WF-KICKAPOO    CLOUDY    30  29  94 NE12      30.26F WCI  20
VERNON         CLOUDY    32  28  88 N6        30.28R WCI  26
ABILENE        CLOUDY    27  27 100 N8        30.27R FOG     WCI  19
ABILENE-DYESS  FRZ RAIN  28  28  99 N6        30.27S WCI  22
BRECKENRIDGE   MIX PCPN  31  31 100 N3        30.28S
CISCO          MIX PCPN  28  28 100 NW7       30.27R VSB 1/4 WCI  21
EASTLAND       CLOUDY    28  28  98 NW7       30.28R FOG     WCI  21
RANGER         MIX PCPN  30  30 100 CALM      30.26R
MINERAL WELLS  MIX PCPN  30  29  96 W6        30.27R FOG     WCI  24
STEPHENVILLE   CLOUDY    32  31  96 CALM      30.27S
COMANCHE       CLOUDY    31  31 100 NW7       30.27R FOG     WCI  24
BROWNWOOD      CLOUDY    32  30  93 MISG      30.28S FOG
COLEMAN        CLOUDY    31  30  98 NW8       30.27S FOG     WCI  23
$$

TXZ143>147-156>162-174-175-221600-
CENTRAL TEXAS

CITY           SKY/WX    TMP DP  RH WIND       PRES   REMARKS
WACO           RAIN      35  34  96 N8        30.29R VSB 1   WCI  29
WACO-TSTC      CLOUDY    36  36 100 NW6       30.29S FOG     WCI  31
WACO-MCGREGOR  LGT RAIN  35  34  96 N7        30.29R WCI  29
HILLSBORO      LGT RAIN  35  35 100 N7        30.26S WCI  29
CORSICANA      LGT RAIN  38  38 100 N6        30.27F WCI  33
MEXIA          DRIZZLE   37  36  97 N6        30.26R WCI  33
HEARNE         CLOUDY    39  39 100 NW8       30.28R FOG     WCI  34
CAMERON        DRIZZLE   37  37  98 NW9       30.28R WCI  31
TEMPLE         LGT RAIN  34  34 100 N7        30.28S FOG     WCI  28
KILLEEN        CLOUDY    33  33 100 N7        30.25S WCI  27
KILLEEN-SKYLRK CLOUDY    34  34 100 N7        30.27S FOG     WCI  28
FORT HOOD      CLOUDY    34  34 100 N5        30.24  FOG     WCI  30
GATESVILLE     CLOUDY    34  34 100 CALM      30.29R FOG
HAMILTON       CLOUDY    33  33 100 N3        30.27R FOG
LAMPASAS       CLOUDY    32  32  99 N5        30.25S FOG     WCI  28
$$

TXZ095>097-106>112-122>126-135>138-148>153-164>167-221600-
EAST TEXAS

CITY           SKY/WX    TMP DP  RH WIND       PRES   REMARKS
PARIS          FOG       40  39  97 N7        30.28S VSB 1   WCI  35
SULPHUR SPRNGS CLOUDY    40  40 100 N8        30.29F FOG     WCI  34
MOUNT PLEASANT CLOUDY    43  43 100 N5        30.28F VSB 1
GILMER           N/A     43  43 100 N5        30.26F FOG     WCI  40
MINEOLA        CLOUDY    39  39 100 N5        30.26F FOG     WCI  36
TYLER          LGT RAIN  42  31  64 NE5       30.25R WCI  39
LONGVIEW       LGT RAIN  48  48 100 CALM      30.25S VSB 1/2
MARSHALL       CLOUDY    50  48  94 E6        30.29S
ATHENS         LGT RAIN  36  36 100 CALM      30.26R
PALESTINE      CLOUDY    42  42 100 N3        30.26F FOG
JACKSONVILLE   CLOUDY    44  44 100 N3        30.26R
HENDERSON      TSTM      47  47 100 N5        30.25F
CENTER         CLOUDY    51  50  95 NE7       30.26F FOG
NACOGDOCHES    CLOUDY    53  52  96 CALM      30.25S FOG
LUFKIN         CLOUDY    54  54 100 CALM      30.23S FOG
$$

SUPPLEMENTAL OBSERVATIONS (NWS FORT WORTH AREA)

CITY           SKY/WX    TMP DP  RH WIND       PRES   REMARKS
$$

SUPPLEMENTAL OBSERVATIONS (NWS NORMAN AREA)

CITY           SKY/WX    TMP DP  RH WIND       PRES   REMARKS
GOODLETT         N/A     28  26  95 N2        30.29R
ODELL            N/A     30  30 100 N5        30.27F WCI  25
CROWELL          N/A     29  29  96 CALM      30.30R
KNOX CITY        N/A     29  26  92 N2        30.32R
SEYMOUR          N/A     29  29  96 CALM      30.32R
$$

SUPPLEMENTAL OBSERVATIONS (NWS SAN ANGELO AREA)

CITY           SKY/WX    TMP DP  RH WIND       PRES   REMARKS
WEINERT          N/A     29  27  94 CALM      30.32F
HASKELL          N/A     29  28  99 CALM      30.30S
THROCKMORTON     N/A     29  29  99 NW3       30.32R
STAMFORD         N/A     28  27  96 N5        30.31R WCI  23
CLYDE            N/A     27  26  99 CALM      30.27S
$$

SUPPLEMENTAL OBSERVATIONS (NWS SHREVEPORT AREA)

CITY           SKY/WX    TMP DP  RH WIND       PRES   REMARKS
$$

SUPPLEMENTAL OBSERVATIONS ARE A COLLECTION OF AUTOMATED INSTRUMENTS
THAT ARE MAINTAINED BY A VARIETY OF FEDERAL AND STATE AGENCIES.
CERTAIN ELEMENTS...SUCH AS HUMIDITY VALUES AND SUSTAINED WIND
SPEEDS...MAY BE APPROXIMATED.





USA.gov is the U.S. government's official web portal to all federal, state and local government web resources and services.